"Time","Temp","Dewpoint","Humidity","Pressure","Direction","Speed","Gust","Precip","PrecipRate","Solar"
"00:04:57","18.3","9.8","68.7","30.62","347","0","0","0.00","0.00","0"
"00:09:58","17.8","9.4","69","30.62","347","0","0","0.00","0.00","0"
"00:14:56","17.2","9","69.7","30.62","347","0","1.2","0.00","0.00","0"
"00:19:56","16.8","9","71","30.62","347","0","0","0.00","0.00","0"
"00:24:57","16.5","9","72","30.62","347","0","0","0.00","0.00","0"
"00:29:57","16.2","8.9","72.4","30.62","347","0","0","0.00","0.00","0"
"00:34:57","15.8","8.7","73","30.62","347","0","0","0.00","0.00","0"
"00:39:59","15.3","8.2","73","30.62","347","0","0","0.00","0.00","0"
"00:44:59","15","8.2","73.9","30.62","347","0","0","0.00","0.00","0"
"00:49:59","14.8","8.1","74.2","30.62","347","0","0","0.00","0.00","0"
"00:54:56","14.7","8.2","75","30.62","347","0","0","0.00","0.00","0"
"00:59:56","14.5","8.2","75.6","30.62","347","0.1","1.2","0.00","0.00","0"
"01:04:56","14.5","8.3","76","30.62","347","0","0","0.00","0.00","0"
"01:09:59","14.5","8.3","76","30.62","347","0","0","0.00","0.00","0"
"01:14:56","14.3","8.1","76","30.62","347","0.2","1.2","0.00","0.00","0"
"01:19:56","13.8","7.6","76","30.62","347","0","0","0.00","0.00","0"
"01:24:56","13.5","7.7","77.5","30.62","347","0.1","1.2","0.00","0.00","0"
"01:29:57","13.4","8","78.6","30.62","347","0","0","0.00","0.00","0"
"01:34:57","13.4","8.1","79","30.62","347","0","0","0.00","0.00","0"
"01:39:58","13.2","7.8","78.5","30.62","347","0.4","1.2","0.00","0.00","0"
"01:44:58","13.4","8.1","79","30.62","347","0","1.2","0.00","0.00","0"
"01:49:58","13.4","8.1","79","30.62","347","0","0","0.00","0.00","0"
"01:54:58","13.1","7.7","78.5","30.62","347","0","0","0.00","0.00","0"
"01:59:59","12.9","7.7","79.1","30.62","347","0.1","1.2","0.00","0.00","0"
"02:04:31","12.6","7.3","79","30.62","347","0","0","0.00","0.00","0"
"02:09:58","12.3","7.2","79.7","30.62","347","0","0","0.00","0.00","0"
"02:14:58","12.3","7.4","80.2","30.62","347","0","0","0.00","0.00","0"
"02:19:59","12.4","7.7","81","30.62","347","0.1","1.2","0.00","0.00","0"
"02:24:59","12.5","7.8","81","30.62","347","0","1.2","0.00","0.00","0"
"02:29:59","12.2","7.2","79.8","30.62","347","0","0","0.00","0.00","0"
"02:34:59","12","7","80","30.62","347","0","0","0.00","0.00","0"
"02:39:56","11.9","7.2","81","30.62","347","0","0","0.00","0.00","0"
"02:44:56","11.9","7.2","81","30.62","347","0","0","0.00","0.00","0"
"02:49:57","11.9","7.2","81","30.62","347","0","1.2","0.00","0.00","0"
"02:54:57","11.6","6.7","80.4","30.62","347","0.3","2.4","0.00","0.00","0"
"02:59:58","11.2","6.5","80.9","30.62","347","0","0","0.00","0.00","0"
"03:04:58","11.1","6.5","81.3","30.62","347","0","0","0.00","0.00","0"
"03:09:57","10.8","6.4","82","30.62","347","0","0","0.00","0.00","0"
"03:14:57","10.6","6.2","82","30.62","347","0","0","0.00","0.00","0"
"03:19:58","10.5","6.4","82.9","30.62","347","0","1.2","0.00","0.00","0"
"03:24:58","10.5","6.5","83.3","30.62","347","0","0","0.00","0.00","0"
"03:29:59","10.4","6.5","84","30.62","347","0","0","0.00","0.00","0"
"03:34:59","10.4","6.5","84","30.62","347","0","0","0.00","0.00","0"
"03:39:57","10.2","6.3","84","30.62","347","0","0","0.00","0.00","0"
"03:44:56","10.1","6.2","84","30.63","347","0","1.2","0.00","0.00","0"
"03:49:56","10.2","6.3","84","30.63","347","0","1.2","0.00","0.00","0"
"03:54:57","10.3","6.4","84","30.63","347","0.2","1.2","0.00","0.00","0"
"03:59:56","10.4","6.5","84","30.63","347","0","0","0.00","0.00","0"
"04:04:57","10.3","6.4","84","30.63","347","0","0","0.00","0.00","0"
"04:09:56","10.2","6.3","84","30.63","347","0","0","0.00","0.00","0"
"04:14:58","10.2","6.3","84","30.63","347","0","0","0.00","0.00","0"
"04:19:58","10.1","6.2","84","30.63","347","0","0","0.00","0.00","0"
"04:24:56","9.9","6","84","30.63","347","0","0","0.00","0.00","0"
"04:29:58","9.6","5.7","84","30.64","347","0","0","0.00","0.00","0"
"04:34:58","9.4","5.5","84","30.64","347","0","0","0.00","0.00","0"
"04:39:59","9.2","5.3","84","30.64","347","0","0","0.00","0.00","0"
"04:44:59","9.1","5.2","84","30.64","347","0","0","0.00","0.00","0"
"04:49:56","9","5.4","85","30.64","347","0","0","0.00","0.00","0"
"04:54:56","9","5.4","85","30.64","347","0","0","0.00","0.00","0"
"04:59:57","9","5.4","85","30.65","347","0","0","0.00","0.00","0"
"05:04:57","9","5.4","85","30.65","347","0","0","0.00","0.00","0"
"05:09:56","8.9","5.3","85","30.65","347","0","0","0.00","0.00","0"
"05:14:57","8.8","5.2","85","30.65","347","0","0","0.00","0.00","0"
"05:19:59","8.8","5.3","85.4","30.64","347","0","0","0.00","0.00","0"
"05:24:47","8.8","5.5","86","30.64","347","0","0","0.00","0.00","0"
"05:29:56","8.6","5.3","86","30.64","347","0","0","0.00","0.00","0"
"05:34:57","8.4","5.1","86","30.64","347","0","0","0.00","0.00","0"
"05:39:58","8.2","4.9","86","30.64","347","0","0","0.00","0.00","0"
"05:44:58","8.2","4.9","86","30.64","347","0","1.2","0.00","0.00","0"
"05:49:58","8.3","5","86","30.63","347","0","1.2","0.00","0.00","0"
"05:54:58","8.2","4.9","86","30.63","347","0","0","0.00","0.00","0"
"05:59:58","8.1","4.8","86","30.63","347","0","0","0.00","0.00","0"
"06:04:58","8","4.7","86","30.63","347","0","0","0.00","0.00","0"
"06:09:58","7.9","4.6","86","30.63","347","0","0","0.00","0.00","0"
"06:14:58","7.9","4.7","86.4","30.64","347","0","0","0.00","0.00","0"
"06:19:58","7.8","4.7","87","30.64","347","0","0","0.00","0.00","0"
"06:24:58","7.9","4.8","87","30.64","347","0","0","0.00","0.00","0"
"06:29:58","8","4.9","87","30.64","347","0","0","0.00","0.00","0"
"06:34:58","7.9","4.8","87","30.64","347","0","0","0.00","0.00","0"
"06:39:58","7.8","4.7","87","30.64","347","0","0","0.00","0.00","0"
"06:44:57","7.6","4.5","87","30.64","347","0","0","0.00","0.00","0"
"06:49:58","7.5","4.4","87","30.64","347","0","0","0.00","0.00","0"
"06:54:57","7.4","4.3","87","30.64","347","0","0","0.00","0.00","0"
"06:59:57","7.4","4.3","87","30.64","347","0","0","0.00","0.00","0"
"07:04:56","7.4","4.3","87","30.64","347","0","0","0.00","0.00","0"
"07:09:59","7.4","4.3","87","30.64","347","0","0","0.00","0.00","0"
"07:14:59","7.4","4.3","87","30.64","347","0","0","0.00","0.00","0"
"07:19:58","7.4","4.3","87","30.64","347","0","0","0.00","0.00","0"
"07:24:58","7.4","4.3","87","30.64","347","0","0","0.00","0.00","0"
"07:29:59","7.4","4.3","87","30.64","347","0","0","0.00","0.00","5"
"07:34:56","7.3","4.2","87","30.64","347","0","0","0.00","0.00","7"
"07:39:58","7.2","4.1","87","30.64","347","0","0","0.00","0.00","9"
"07:44:59","7.1","4","87","30.64","347","0","0","0.00","0.00","11"
"07:49:57","7.1","4","87","30.64","347","0","0","0.00","0.00","11"
"07:54:57","7.1","4","87","30.64","347","0","0","0.00","0.00","16"
"07:59:58","7.2","4.1","87","30.64","347","0","0","0.00","0.00","18"
"08:04:58","7.4","4.3","87","30.64","347","0","0","0.00","0.00","19"
"08:09:57","7.7","4.8","87.6","30.64","347","0","0","0.00","0.00","23"
"08:14:57","8.2","5.4","88","30.64","347","0","0","0.00","0.00","25"
"08:19:58","8.5","5.7","88","30.64","347","0","0","0.00","0.00","62"
"08:24:57","8.9","6.1","88","30.64","347","0","0","0.00","0.00","65"
"08:29:58","9.7","6.9","88","30.64","347","0","0","0.00","0.00","72"
"08:34:57","10.9","8.1","88.4","30.64","347","0","0","0.00","0.00","86"
"08:39:57","12.1","9.2","88","30.64","347","0","0","0.00","0.00","98"
"08:44:57","14.1","10.6","85.7","30.64","347","0","1.2","0.00","0.00","125"
"08:49:57","16.6","11.1","78.7","30.64","347","0","1.2","0.00","0.00","148"
"08:54:57","16.9","10.8","76.7","30.64","347","0","0","0.00","0.00","193"
"08:59:58","17.6","11.1","75.6","30.65","258","0.6","3.6","0.00","0.00","214"
"09:04:57","19.7","12.2","72.3","30.65","235","0.4","2.4","0.00","0.00","225"
"09:09:56","20.8","12.5","69.8","30.65","230","0.7","2.4","0.00","0.00","232"
"09:14:56","21.9","12.4","66.4","30.65","222","1.1","3.6","0.00","0.00","244"
"09:19:57","22.6","12.6","65","30.65","214","1.5","3.6","0.00","0.00","255"
"09:24:57","23.1","12.5","63.4","30.65","194","1.4","3.6","0.00","0.00","267"
"09:29:58","23.8","12.6","61.6","30.66","192","1","3.6","0.00","0.00","278"
"09:34:58","24.8","12.6","59.3","30.66","181","1.3","4.8","0.00","0.00","287"
"09:39:56","25","12.4","58.1","30.66","146","1.1","4.6","0.00","0.00","299"
"09:44:56","25.5","12.7","57.8","30.66","186","2","6","0.00","0.00","308"
"09:49:56","25.6","12.3","56.7","30.65","203","2.2","7.2","0.00","0.00","316"
"09:54:56","25.9","12.6","56.9","30.65","177","3","6.9","0.00","0.00","327"
"09:59:56","26.4","13","56.5","30.65","157","2","5.8","0.00","0.00","336"
"10:04:56","27","13.3","55.9","30.65","152","2.1","4.8","0.00","0.00","345"
"10:09:58","27.6","13.4","54.6","30.65","122","2","7.2","0.00","0.00","373"
"10:14:58","28","13.4","53.6","30.65","167","1.9","6","0.00","0.00","584"
"10:19:58","28.2","13.2","52.9","30.65","172","2.7","6","0.00","0.00","582"
"10:24:57","28.7","13.9","53.4","30.65","151","1.9","4.8","0.00","0.00","404"
"10:29:56","28.9","14","53.2","30.65","153","3.3","6","0.00","0.00","420"
"10:34:56","29.1","13.7","52.2","30.63","185","4.1","8.4","0.00","0.00","394"
"10:39:57","29.5","13.4","50.7","30.63","186","5.9","13.2","0.00","0.00","399"
"10:44:57","29.7","13.9","51.4","30.64","189","5.2","8.4","0.00","0.00","404"
"10:49:57","30.5","14.4","50.9","30.64","180","4.1","9.6","0.00","0.00","411"
"10:54:57","30.6","13.9","49.5","30.64","199","6.3","13.2","0.00","0.00","418"
"10:59:58","30.8","14.4","50","30.64","193","4.7","12.7","0.00","0.00","424"
"11:04:58","31.5","15.1","50.2","30.64","205","3.9","8.4","0.00","0.00","431"
"11:09:56","31.4","14.3","48.7","30.64","213","5.8","10.8","0.00","0.00","439"
"11:14:57","31.4","14.1","48.3","30.64","203","6.4","15","0.00","0.00","443"
"11:19:57","31.4","13.7","47.5","30.64","187","5.8","12","0.00","0.00","765"
"11:24:57","31.4","13.3","46.6","30.64","182","5.8","15","0.00","0.00","708"
"11:29:58","31.7","13.7","47","30.64","186","5.3","10.8","0.00","0.00","649"
"11:34:58","32.1","14","46.8","30.63","188","5.8","13.2","0.00","0.00","838"
"11:39:59","32.3","13.9","46.2","30.63","178","4.3","10.8","0.00","0.00","679"
"11:44:59","32.1","13.6","45.8","30.63","186","6.5","14.4","0.00","0.00","462"
"11:49:56","32.4","14.1","46.5","30.62","189","4.9","12.7","0.00","0.00","462"
"11:54:56","32.7","14.3","46.2","30.62","178","4.7","8.4","0.00","0.00","468"
"11:59:56","33","14.7","46.6","30.62","196","4.9","13.2","0.00","0.00","461"
"12:04:56","33","14.5","46.2","30.60","172","3.9","11.5","0.00","0.00","462"
"12:09:59","33.4","14.8","46","30.60","184","5.1","10.8","0.00","0.00","464"
"12:14:59","33.3","14.4","45.3","30.60","166","3.4","12","0.00","0.00","439"
"12:19:56","33.6","14.7","45.6","30.60","183","5.1","13.2","0.00","0.00","446"
"12:24:56","33.8","15.2","46.1","30.60","210","4.6","10.4","0.00","0.00","468"
"12:29:56","34.1","15.3","45.7","30.60","197","4.4","10.8","0.00","0.00","464"
"12:34:56","34.1","14.8","44.8","30.58","203","4.7","9.6","0.00","0.00","482"
"12:39:57","34.5","15.7","45.7","30.58","190","4.3","15","0.00","0.00","473"
"12:44:58","34.8","15.5","44.7","30.58","200","5","12","0.00","0.00","457"
"12:49:58","35","15.7","44.8","30.57","226","4.7","11.5","0.00","0.00","464"
"12:54:58","35.6","16.2","44.8","30.57","206","2.9","6","0.00","0.00","464"
"12:59:59","36.1","16.5","44.4","30.57","183","3.1","7.2","0.00","0.00","450"
"13:04:59","35.9","15.9","43.6","30.57","174","3.5","6.9","0.00","0.00","461"
"13:09:57","36.2","16.2","43.8","30.57","185","4.1","8.4","0.00","0.00","469"
"13:14:58","35.9","15.9","43.7","30.57","176","4.5","12","0.00","0.00","461"
"13:19:59","36.3","16.8","44.7","30.56","183","4","8.4","0.00","0.00","448"
"13:24:59","36.8","16.7","43.7","30.56","189","3.7","7.2","0.00","0.00","439"
"13:29:56","36.5","16.5","43.8","30.56","213","2.9","7.2","0.00","0.00","424"
"13:34:56","37.1","17.9","45.3","30.54","190","2.9","7.2","0.00","0.00","448"
"13:39:58","37.7","17.4","43.4","30.54","181","4.4","12","0.00","0.00","527"
"13:44:58","36.7","15.9","42.3","30.54","180","4.5","11.5","0.00","0.00","371"
"13:49:58","36.7","16.6","43.7","30.54","173","2.8","7.2","0.00","0.00","390"
"13:54:59","36.7","16.5","43.4","30.54","193","4.1","8.4","0.00","0.00","390"
"13:59:59","36.3","16.5","44","30.54","188","3.8","7.2","0.01","0.01","264"
"14:04:59","36.2","17","45.1","30.53","193","3.4","7.2","0.01","0.01","439"
"14:09:57","37.4","17.5","44.2","30.53","186","4.2","12","0.01","0.01","415"
"14:14:58","37.9","16.8","42.1","30.53","203","4.1","8.4","0.01","0.01","385"
"14:19:57","38.5","17.9","43.1","30.52","210","2.6","7.2","0.02","0.02","376"
"14:24:57","38.7","17.1","41.2","30.52","190","2.3","6.9","0.02","0.02","366"
"14:29:58","38.8","17.2","41.3","30.52","204","4.6","9.6","0.02","0.02","371"
"14:34:58","38.7","17","41","30.52","210","4.4","8.4","0.03","0.03","415"
"14:39:59","37.7","17.2","43.1","30.52","221","4.1","10.8","0.03","0.03","142"
"14:44:59","37.2","16.9","43.2","30.54","215","4.3","8.4","0.03","0.03","148"
"14:49:59","37.5","17.1","43.2","30.54","204","4.3","8.4","0.03","0.03","364"
"14:54:59","38.7","17.8","42.5","30.54","202","4.3","9.6","0.03","0.03","352"
"14:59:56","39.3","17.3","40.5","30.54","193","5.3","12","0.04","0.03","387"
"15:04:59","39.3","17.5","41","30.54","190","4.2","11.5","0.04","0.03","350"
"15:09:58","39.2","18","41.9","30.54","167","3","7.2","0.04","0.03","214"
"15:14:58","38.7","17.1","41.3","30.54","173","4.5","12","0.04","0.03","246"
"15:19:59","38.5","17.7","42.6","30.53","165","3.3","6.9","0.04","0.03","176"
"15:24:59","38.2","17.6","42.8","30.53","189","3.8","7.2","0.04","0.02","179"
"15:29:56","38","17.5","43","30.53","198","5.6","12","0.05","0.03","113"
"15:34:56","37.9","18.1","44.5","30.52","189","2.6","7.2","0.05","0.03","135"
"15:39:57","38","18","44.1","30.52","186","3.3","6.9","0.05","0.02","137"
"15:44:57","38.1","17.6","43.3","30.52","176","3.9","8.4","0.05","0.02","165"
"15:49:58","38","18","44.1","30.52","175","3.5","8.1","0.05","0.02","107"
"15:54:58","38","18","44.1","30.52","192","2.8","7.2","0.05","0.02","109"
"15:59:59","37.9","18.2","44.7","30.52","178","2.9","6","0.05","0.02","60"
"16:04:58","37.8","17.9","44.3","30.52","162","2.5","4.8","0.05","0.01","56"
"16:09:57","37.7","18.4","45.3","30.52","174","2.6","4.8","0.05","0.01","53"
"16:14:58","37.5","18.2","45.2","30.52","183","2.3","6","0.05","0.01","51"
"16:19:59","37.5","18.5","45.7","30.52","178","1.8","4.8","0.05","0.01","44"
"16:24:59","37.5","18.4","45.5","30.52","176","2.1","4.8","0.05","0.01","42"
"16:29:57","37.5","18.3","45.4","30.52","174","2.9","4.8","0.05","0.01","40"
"16:34:57","37.5","18.5","45.9","30.51","149","1.9","4.6","0.05","0.00","39"
"16:39:58","37.4","18.6","46.3","30.51","171","2.7","4.8","0.05","0.00","33"
"16:44:58","37.3","18.5","46.2","30.51","194","1.4","4.6","0.05","0.00","26"
"16:49:59","37.2","18.8","47.1","30.51","194","1.3","3.6","0.05","0.00","21"
"16:54:56","37","19.3","48.3","30.51","194","0.1","2.3","0.05","0.00","18"
"16:59:57","36.9","19","47.9","30.52","194","0.5","2.4","0.05","0.00","14"
"17:04:57","36.8","18.4","47","30.52","194","0.1","2.3","0.05","0.00","11"
"17:09:56","36.7","19.3","49","30.52","194","0.1","1.2","0.05","0.00","9"
"17:14:57","36.5","19.1","49","30.52","194","0","0","0.05","0.00","5"
"17:19:58","36.3","18.9","48.9","30.52","194","0","0","0.05","0.00","5"
"17:24:58","36.1","18.8","49","30.52","194","0","0","0.05","0.00","0"
"17:29:59","35.8","19.1","50.1","30.52","194","0","0","0.05","0.00","0"
"17:34:56","35.5","19.3","51.5","30.51","194","0","0","0.05","0.00","0"
"17:39:58","35.1","20","53.7","30.51","194","0.5","2.4","0.05","0.00","0"
"17:44:58","34.7","19.3","53","30.53","194","0.8","1.2","0.05","0.00","0"
"17:49:59","34.4","19.4","53.7","30.53","194","0.1","1.2","0.05","0.00","0"
"17:54:56","34.3","19.2","53.7","30.53","194","0","0","0.05","0.00","0"
"17:59:57","34","19.3","54.4","30.53","194","0","0","0.05","0.00","0"
"18:04:57","33.8","19.7","55.9","30.53","194","0","0","0.05","0.00","0"
"18:09:56","33.5","20","57.3","30.53","194","0","0","0.05","0.00","0"
"18:14:57","33.2","20.2","58.6","30.53","194","0","0","0.05","0.00","0"
"18:19:58","32.9","20.2","59.4","30.53","194","0","0","0.05","0.00","0"
"18:24:58","32.6","20.6","61","30.53","194","0","0","0.05","0.00","0"
"18:29:59","32.2","20","60.2","30.53","194","0","0","0.05","0.00","0"
"18:34:56","32","20.2","61.4","30.53","194","0","0","0.05","0.00","0"
"18:39:58","31.8","20.8","63.6","30.53","194","0","0","0.05","0.00","0"
"18:44:58","31.6","21.1","64.8","30.54","194","0.3","2.4","0.05","0.00","0"
"18:49:59","31.4","21","65","30.54","194","0","0","0.05","0.00","0"
"18:54:56","31.3","20.7","64.4","30.54","194","0","0","0.05","0.00","0"
"18:59:57","31.2","21","65.4","30.54","194","0","0","0.05","0.00","0"
"19:04:57","31.2","21.1","65.7","30.54","194","0.1","1.2","0.05","0.00","0"
"19:09:56","31.1","21","65.8","30.54","194","0.7","2.4","0.05","0.00","0"
"19:14:57","31","20.6","65","30.54","194","0","0","0.05","0.00","0"
"19:19:58","31","20.7","65.4","30.54","194","0","0","0.05","0.00","0"
"19:24:58","30.9","20.9","66","30.54","194","0","0","0.05","0.00","0"
"19:29:59","30.8","21","66.7","30.54","194","0","0","0.05","0.00","0"
"19:34:59","30.7","21.2","67.5","30.54","194","0.3","2.4","0.05","0.00","0"
"19:39:57","30.6","21.6","68.8","30.54","194","0","0","0.05","0.00","0"
"19:44:58","30.5","21.5","69","30.54","194","0","0","0.05","0.00","0"
"19:49:59","30.4","21.4","69","30.53","194","0","0","0.05","0.00","0"
"19:54:56","30.1","21.2","69","30.53","194","0","0","0.05","0.00","0"
"19:59:57","29.9","21","69","30.54","194","0","0","0.05","0.00","0"
"20:04:57","29.7","20.6","68.7","30.54","194","0","0","0.05","0.00","0"
"20:09:56","29.5","20.8","70","30.54","194","0","0","0.05","0.00","0"
"20:14:57","29.2","20.8","70.3","30.54","194","0","0","0.05","0.00","0"
"20:19:58","28.9","20.7","71","30.53","194","0","0","0.05","0.00","0"
"20:24:58","28.6","20.7","72","30.53","194","0","0","0.05","0.00","0"
"20:29:59","28.3","20.7","73","30.53","194","0","0","0.05","0.00","0"
"20:34:56","28","20.7","73.5","30.53","194","0","0","0.05","0.00","0"
"20:39:57","27.8","20.4","73.3","30.53","194","0","0","0.05","0.00","0"
"20:44:58","27.7","20.4","73.8","30.53","194","0","0","0.05","0.00","0"
"20:49:59","27.5","20.3","74","30.53","194","0","0","0.05","0.00","0"
"20:54:59","27.3","20.1","74","30.53","194","0","0","0.05","0.00","0"
"20:59:56","27","20.1","74.8","30.53","194","0","0","0.05","0.00","0"
"21:04:56","26.8","19.9","75.2","30.53","194","0","0","0.05","0.00","0"
"21:09:59","26.5","20","76","30.53","194","0","0","0.05","0.00","0"
"21:14:56","26.5","20","76","30.54","194","0","0","0.05","0.00","0"
"21:19:57","26.4","19.9","76","30.54","194","0","0","0.05","0.00","0"
"21:24:58","26.2","19.7","76","30.54","194","0","0","0.05","0.00","0"
"21:29:59","26","19.5","76","30.54","194","0","0","0.05","0.00","0"
"21:34:56","25.8","19.5","76.4","30.53","194","0","0","0.05","0.00","0"
"21:39:57","25.6","19.4","77","30.53","194","0","0","0.05","0.00","0"
"21:44:58","25.5","19.3","77","30.53","194","0","0","0.05","0.00","0"
"21:49:59","25.4","19.4","77.8","30.53","194","0","0","0.05","0.00","0"
"21:54:59","25.2","19.3","78","30.53","194","0","0","0.05","0.00","0"
"21:59:56","25.1","19.2","78","30.53","194","0","0","0.05","0.00","0"
"22:04:57","25","19.2","78.2","30.53","194","0","0","0.05","0.00","0"
"22:09:56","24.9","19.3","79.1","30.53","194","0","0","0.05","0.00","0"
"22:14:56","24.8","19.5","80","30.53","194","0","0","0.05","0.00","0"
"22:19:57","24.8","19.5","80","30.52","194","0","0","0.05","0.00","0"
"22:24:58","24.8","19.5","80","30.52","194","0","0","0.05","0.00","0"
"22:29:59","24.7","19.4","80","30.52","194","0","0","0.05","0.00","0"
"22:34:59","24.5","19.2","80","30.52","194","0","0","0.05","0.00","0"
"22:39:59","24.3","19.3","80.8","30.52","194","0","0","0.05","0.00","0"
"22:44:56","24.4","19.4","81","30.53","194","0","0","0.05","0.00","0"
"22:49:57","24.3","19.3","81","30.53","194","0","0","0.05","0.00","0"
"22:54:57","24.3","19.3","81","30.53","194","0","0","0.05","0.00","0"
"22:59:58","24.1","19.1","81","30.53","194","0","0","0.05","0.00","0"
"23:04:58","24","19","81","30.53","194","0","0","0.05","0.00","0"
"23:09:57","23.8","18.8","81","30.53","194","0","0","0.05","0.00","0"
"23:14:58","23.7","18.8","81.4","30.53","194","0","0","0.05","0.00","0"
"23:19:59","23.6","18.9","82","30.52","194","0","0","0.05","0.00","0"
"23:24:56","23.4","18.7","82","30.52","194","0","0","0.05","0.00","0"
"23:29:57","23.4","18.7","82","30.52","194","0.1","2.4","0.05","0.00","0"
"23:34:58","23.4","18.7","82","30.52","194","0.1","1.2","0.05","0.00","0"
"23:39:59","23.4","18.7","82","30.52","194","0","0","0.05","0.00","0"
"23:44:59","23.4","18.7","82","30.52","194","0","0","0.05","0.00","0"
